Location: Caltech
(34.1382°N, 118.1253°W)
Time: 12:19:09
(UTC-08:00)

SEDSat Delta rocket - Visible Passes

Search period start: 04 December 2016 00:00
Search period end: 14 December 2016 00:00
Orbit: 533 x 1002 km, 31.4° (Epoch: 03 December)

Date Brightness Start Highest point End Pass type
(mag) Time Alt. Az. Time Alt. Az. Time Alt. Az.
10 Dec 6.5 05:43:38 10° S 05:48:04 18° SSE 05:52:25 10° ESE visible
11 Dec 6.5 05:03:44 10° S 05:07:33 16° SSE 05:11:23 10° ESE visible
12 Dec 6.5 04:24:09 10° S 04:27:05 13° SE 04:30:02 10° ESE visible
12 Dec 5.5 06:06:51 10° SW 06:12:58 37° SSE 06:18:59 10° E visible
13 Dec 6.6 03:45:24 10° SSE 03:46:37 10° SE 03:47:50 10° SE visible
13 Dec 5.6 05:26:31 10° SW 05:32:24 33° SSE 05:38:19 10° E visible
